This demonstration page uses our WeatherBlox Daily Observations layout. Learn more.

Hourly Observations for April 19, 2019

Temp ( °F °C ) Dew Point ( °F °C ) Humidity (%) Winds ( mph kmh ) Pressure ( in mb ) Visibility ( mi km ) Precip ( " mm )
12:15 am 00:15 Clear 39 3.8 37 2.5 91 91 NNW 7 11 30.18 1022 10 16.0934 0 0
12:35 am 00:35 Clear 37 3 35 1.8 92 92 NW 8 13 30.19 1022 10 16.0934 0 0
12:55 am 00:55 Clear 38 3.5 36 2.3 92 92 NNW 7 11 30.18 1022 10 16.0934 0 0
1:15 am 01:15 Clear 36 2.3 35 1.5 95 95 NW 7 11 30.2 1023 10 16.0934 0 0
1:35 am 01:35 Clear 37 2.5 35 1.5 93 93 NW 5 7 30.19 1022 10 16.0934 0 0
1:55 am 01:55 Clear 36 2 34 1.1 94 94 WNW 8 13 30.2 1023 10 16.0934 0 0
2:15 am 02:15 Clear 36 2.1 34 1.1 93 93 NW 9 15 30.2 1023 10 16.0934 0 0
2:35 am 02:35 Clear 35 1.6 34 1 96 96 WNW 7 11 30.2 1023 10 16.0934 0 0
2:55 am 02:55 Clear 35 1.5 33 0.8 95 95 NW 6 9 30.19 1022 10 16.0934 0 0
3:15 am 03:15 Clear 35 1.8 34 1.1 95 95 WNW 7 11 30.19 1022 10 16.0934 0 0
3:35 am 03:35 Clear 35 1.7 34 0.9 94 94 WNW 7 11 30.19 1022 10 16.0934 0 0
3:55 am 03:55 Clear 35 1.5 33 0.7 94 94 WNW 7 11 30.19 1022 10 16.0934 0 0
4:15 am 04:15 Clear 34 0.9 33 0.3 96 96 NW 7 11 30.2 1023 10 16.0934 0 0
4:35 am 04:35 Clear 34 1.1 33 0.5 96 96 WNW 7 11 30.2 1023 10 16.0934 0 0
4:55 am 04:55 Clear 34 0.9 32 0.2 95 95 WNW 7 11 30.22 1023 10 16.0934 0 0
5:15 am 05:15 Clear 34 1.1 33 0.3 94 94 WNW 7 11 30.21 1023 10 16.0934 0 0
5:35 am 05:35 Clear 33 0.7 32 0 95 95 WNW 7 11 30.23 1024 10 16.0934 0 0
5:55 am 05:55 Clear 32 0.1 32 -0.1 99 99 NW 7 11 30.23 1024 10 16.0934 0 0
6:15 am 06:15 Clear 34 0.9 33 0.4 97 97 NNW 6 9 30.23 1024 10 16.0934 0 0
6:35 am 06:35 Clear 34 1 33 0.3 95 95 NNW 6 9 30.22 1023 10 16.0934 0 0
6:55 am 06:55 Sunny 34 0.9 32 0.1 94 94 NNW 6 9 30.23 1024 10 16.0934 0 0
7:15 am 07:15 Sunny 33 0.5 32 0 96 96 WNW 6 9 30.24 1024 10 16.0934 0 0
7:35 am 07:35 Sunny 34 1.1 33 0.3 94 94 WNW 8 13 30.24 1024 10 16.0934 0 0
7:55 am 07:55 Sunny 35 1.7 33 0.8 94 94 WNW 6 9 30.24 1024 10 16.0934 0 0
8:15 am 08:15 Sunny 37 3 36 2 93 93 NW 5 7 30.24 1024 10 16.0934 0 0
8:35 am 08:35 Sunny 41 4.8 38 3.2 90 90 NNW 3 6 30.22 1023 10 16.0934 0 0
8:55 am 08:55 Sunny 43 6 39 3.8 86 86 NW 5 7 30.21 1023 10 16.0934 0 0
9:15 am 09:15 Sunny 44 6.7 39 4 83 83 NW 7 11 30.2 1023 10 16.0934 0 0
9:35 am 09:35 Sunny 46 7.7 40 4.5 80 80 NW 6 9 30.19 1022 10 16.0934 0 0
9:55 am 09:55 Sunny 47 8.5 40 4.4 76 76 NW 5 7 30.19 1022 10 16.0934 0 0
10:15 am 10:15 Sunny 49 9.6 40 4.3 70 70 NNW 3 6 30.18 1022 10 16.0934 0 0
10:35 am 10:35 Sunny 50 10.2 39 3.7 64 64 N 5 7 30.17 1022 10 16.0934 0 0
10:55 am 10:55 Sunny 51 10.8 38 3.1 59 59 N 3 6 30.16 1021 10 16.0934 0 0
11:15 am 11:15 Sunny 52 11.2 38 3.5 59 59 N 5 7 30.15 1021 10 16.0934 0 0
11:35 am 11:35 Sunny 54 12.1 38 3.6 56 56 N 3 6 30.13 1020 10 16.0934 0 0
11:55 am 11:55 Sunny 55 12.5 38 3.1 53 53 W 5 7 30.12 1020 10 16.0934 0 0
12:15 pm 12:15 Sunny 56 13.3 37 2.8 49 49 NNW 8 13 30.1 1019 10 16.0934 0 0
12:30 pm 12:30 Sunny 56 13.6 36 2 46 46 NNW 8 13 30.1 1019 10 16.0934 0 0
12:55 pm 12:55 Sunny 58 14.3 36 2.4 45 45 W 3 6 30.08 1018 10 16.0934 0 0
1:15 pm 13:15 Sunny 58 14.5 35 1.7 42 42 SSW 3 6 30.05 1018 10 16.0934 0 0
1:35 pm 13:35 Sunny 59 15.1 35 1.5 40 40 SW 7 11 30.05 1018 10 16.0934 0 0
1:55 pm 13:55 Sunny 59 15.2 35 1.4 39 39 N 3 6 30.04 1017 10 16.0934 0 0
2:15 pm 14:15 Sunny 60 15.5 34 1 38 38 Calm 30.02 1017 10 16.0934 0 0
2:35 pm 14:35 Sunny 62 16.8 33 0.8 34 34 WSW 7 11 30.01 1016 10 16.0934 0 0
2:55 pm 14:55 Sunny 63 17 34 1 34 34 Calm 30 1016 10 16.0934 0 0
3:15 pm 15:15 Sunny 63 17.1 33 0.6 33 33 W 5 7 29.99 1016 10 16.0934 0 0
3:35 pm 15:35 Sunny 64 17.7 34 1.1 33 33 W 6 9 29.98 1015 10 16.0934 0 0
3:55 pm 15:55 Sunny 64 17.7 34 1.3 33 33 SW 5 7 29.96 1014 10 16.0934 0 0
4:15 pm 16:15 Sunny 65 18.1 36 2.3 35 35 SSW 8 13 29.95 1014 10 16.0934 0 0
4:35 pm 16:35 Sunny 65 18.1 37 2.5 35 35 SSW 5 7 29.94 1014 10 16.0934 0 0
4:55 pm 16:55 Sunny 65 18.6 37 2.9 35 35 SSW 9 15 29.93 1014 10 16.0934 0 0
5:15 pm 17:15 Sunny 65 18.5 37 2.7 35 35 Calm 29.92 1013 10 16.0934 0 0
5:35 pm 17:35 Sunny 66 18.7 37 2.7 35 35 SSW 7 11 29.92 1013 10 16.0934 0 0
5:55 pm 17:55 Sunny 66 18.8 36 2.4 34 34 WSW 7 11 29.92 1013 10 16.0934 0 0
6:15 pm 18:15 Sunny 66 18.7 36 2.4 34 34 SW 7 11 29.91 1013 10 16.0934 0 0
6:35 pm 18:35 Sunny 65 18.6 36 2.3 34 34 SW 9 15 29.91 1013 10 16.0934 0 0
6:55 pm 18:55 Sunny 65 18.5 37 2.5 35 35 SW 8 13 29.91 1013 10 16.0934 0 0
7:15 pm 19:15 Sunny 65 18.3 36 2.3 35 35 SSW 8 13 29.9 1013 10 16.0934 0 0
7:35 pm 19:35 Sunny 64 18 36 2.1 35 35 S 8 13 29.89 1012 10 16.0934 0 0
7:55 pm 19:55 Sunny 63 17.2 37 2.5 38 38 S 6 9 29.9 1013 10 16.0934 0 0
8:15 pm 20:15 Sunny 59 15.1 38 3.3 45 45 S 7 11 29.91 1013 10 16.0934 0 0
8:35 pm 20:35 Clear 58 14.4 37 3 47 47 S 8 13 29.91 1013 10 16.0934 0 0
8:55 pm 20:55 Clear 55 12.7 38 3.4 53 53 SSE 7 11 29.92 1013 10 16.0934 0 0
9:15 pm 21:15 Clear 54 12.1 38 3.4 56 56 S 8 13 29.92 1013 10 16.0934 0 0
9:35 pm 21:35 Clear 54 12.1 38 3.1 54 54 S 8 13 29.92 1013 10 16.0934 0 0
9:55 pm 21:55 Clear 52 11 38 3.2 59 59 S 8 13 29.94 1014 10 16.0934 0 0
10:15 pm 22:15 Clear 51 10.8 38 3.2 60 60 S 7 11 29.95 1014 10 16.0934 0 0
10:35 pm 22:35 Clear 51 10.8 38 3.2 60 60 S 9 15 29.95 1014 10 16.0934 0 0
10:55 pm 22:55 Clear 49 9.7 38 3.4 65 65 S 8 13 29.95 1014 10 16.0934 0 0
11:15 pm 23:15 Clear 48 9 38 3.5 69 69 S 7 11 29.95 1014 10 16.0934 0 0
11:35 pm 23:35 Clear 49 9.4 38 3.5 67 67 S 8 13 29.95 1014 10 16.0934 0 0
11:55 pm 23:55 Clear 49 9.2 38 3.3 67 67 S 10 17 29.95 1014 10 16.0934 0 0

Powered by AerisWeather